Погода в Зыбино

Россия / Белгородская область     50°41′30″N   36°02′15″E
темп.,
°C
ветер,
м/с
пор.,
м/с
влажн.,
%
обл.,
%
осадки,
мм/ч
давл.,
гПа
погр.,
м
16 апреля, пт
пт1600:00+7ююв48905 0.4 1013332
03:00+7юв3687100 0.4 1013292
06:00+7юв498877 0.1 1014432
09:00+8ююв688079 0.1 1015929
12:00+9ююв578083 0.1 1016803
15:00+10ю576795 0.5 10161110
18:00+10ююв477594 0.2 1016739
21:00+7юв498895 0.4 1016228
17 апреля, сб
сб1700:00+6ююв499198 0.2 1017355
03:00+5в238999 1.5 101765
06:00+4юв249268 0.0 101877
09:00+7ююз447416 0.0 1018612
12:00+9ююз5563100 0.0 10181370
15:00+7юз5575100 0.3 1019876
18:00+7юз468199 0.1 1019889
21:00+6юз4686100 0.1 1020558
18 апреля, вс
вс1800:00+5ююз3789100 0.1 1020483
03:00+5ю2587100 0.1 1019168
06:00+5ю3587100 0.1 1019212
09:00+7ю4776100 0.1 1019569
12:00+8ююв4673100 0.0 1019742
15:00+13ююз5851100 0.1 10182060
18:00+11юв3666100 0.1 1017179
21:00+8ююв1187100 1.1 101769
19 апреля, пн
пн1900:00+8юз249299 1.1 1017182
03:00+8юз2390100 1.4 1016124
06:00+7зюз239758 0.3 1016130
09:00+9юз238099 0.3 1016434
12:00+13ю465691 0.7 10151251
15:00+14ююв355095 1.2 10141405
18:00+14всв3653100 0.0 1012329
21:00+11юв4977100 0.3 1012320
20 апреля, вт
вт2000:00+9в61387100 0.1 1010563
03:00+10в81589100 1.0 1006715
06:00+9в101793100 4.4 1001843
09:00+10в101995100 12.6 996913
12:00+11ююз61293100 2.7 995553
15:00+14ю9146518 3.8 9951639
18:00+11ююв7117398 0.4 9961058
21:00+9ююв91483100 0.9 9971390